Regional Weather Roundup
Issued by NWS

Home | Current Version | Previous Version | Text Only | Print | Product List | Glossary Off
Versions: 1 2 3 4 5 6 7 8 9 10 11 12 13 14 15 16 17 18 19 20 21 22 23 24 25 26 27

000
ASUS45 KBOI 241310
RWRID
WEATHER ROUNDUP FOR IDAHO
NATIONAL WEATHER SERVICE BOISE ID
700 AM MDT THU APR 24 2014

NOTE: "FAIR" INDICATES FEW OR NO CLOUDS BELOW 12000 FEET
WITH NO SIGNIFICANT WEATHER AND/OR OBSTRUCTIONS TO VISIBILITY

IDZ012-014-241400-
SOUTHWEST IDAHO


CITY           SKY/WX    TMP DP  RH WIND       PRES   REMARKS
BOISE          LGT RAIN  47  34  60 S5        29.92S
CALDWELL       CLOUDY    45  34  65 SE6       29.93F
MOUNTAIN HOME  CLOUDY    44  32  61 SE8       29.93R
$$

IDZ016-017-241400-
SOUTHCENTRAL IDAHO


CITY           SKY/WX    TMP DP  RH WIND       PRES   REMARKS
BURLEY         CLOUDY    45  25  45 S21G28    29.94F
JEROME         CLOUDY    44  28  53 S6        29.97R
TWIN FALLS     CLOUDY    50  25  37 S15       29.96R
$$

IDZ019>023-241400-
SOUTHEAST IDAHO


CITY           SKY/WX    TMP DP  RH WIND       PRES   REMARKS
IDAHO FALLS    CLOUDY    35  26  69 SW8       29.98S WCI  29
POCATELLO      PTCLDY    43  24  47 S13       29.98S
REXBURG        CLOUDY    37  24  59 CALM      29.98S
$$

IDZ006-010-011-018-031-032-241400-
CENTRAL IDAHO MOUNTAINS


CITY           SKY/WX    TMP DP  RH WIND       PRES   REMARKS
MCCALL         LGT SNOW  33  31  92 SE7       29.86F FOG     WCI  27
HAILEY         CLOUDY    37  27  65 N6        29.98R WCI  33
STANLEY          N/A     34  26  72 SE10      29.91S WCI  26
SALMON         CLOUDY    39  28  65 CALM      29.85S
CHALLIS        CLOUDY    43  22  43 S8        29.88S
$$

IDZ002-004-006-007-026-241400-
NORTHERN IDAHO


CITY           SKY/WX    TMP DP  RH WIND       PRES   REMARKS
LEWISTON       LGT RAIN  45  40  82 E9        29.79F
LOWELL           N/A     40  39  97 NW3       29.88S
COEUR D`ALENE  CLOUDY    39  37  93 CALM      29.78S
MULLAN PASS    SNOW      28  28 100 VRB6      29.73S VSB 1/4 WCI  22
$$



USA.gov is the U.S. government's official web portal to all federal, state and local government web resources and services.